Total_Precipitation_Accumulation
0.05 0.09 0.19 0.17 0.18 0.16 0.15 0.15 0.17 0.19 0.25 0.31 0.28 0.24 0.23 0.23 0.23 0.21 0.25 0.27 0.30 0.33 0.30 0.30 0.32 0.34 0.36 0.34 0.24 0.12 0.08 0.07 0.05 0.04 0.05 0.07 0.08 0.10 0.09 0.09 0.10 0.11 0.14
0.03 0.08 0.17 0.17 0.18 0.18 0.19 0.18 0.17 0.19 0.26 0.33 0.33 0.30 0.29 0.30 0.28 0.26 0.25 0.27 0.28 0.28 0.28 0.26 0.21 0.17 0.14 0.11 0.07 0.05 0.04 0.03 0.01 0.01 0.01 0.03 0.06 0.07 0.06 0.06 0.08 0.12 0.16
0.05 0.09 0.16 0.18 0.19 0.19 0.19 0.18 0.17 0.21 0.27 0.32 0.35 0.38 0.35 0.33 0.31 0.31 0.32 0.28 0.30 0.26 0.26 0.19 0.13 0.09 0.06 0.03 0.02 0.03 0.02 0.01 0.01 0.01 0.02 0.03 0.04 0.07 0.06 0.06 0.10 0.15 0.17
0.06 0.09 0.13 0.19 0.21 0.21 0.21 0.21 0.20 0.23 0.29 0.33 0.37 0.40 0.38 0.38 0.38 0.35 0.33 0.28 0.27 0.22 0.19 0.12 0.07 0.06 0.04 0.02 0.02 0.02 0.01 0.01 0.01 0.02 0.03 0.03 0.04 0.08 0.09 0.09 0.12 0.14 0.14
0.10 0.12 0.19 0.25 0.26 0.25 0.23 0.24 0.25 0.26 0.30 0.36 0.43 0.47 0.45 0.45 0.43 0.38 0.31 0.25 0.22 0.17 0.16 0.11 0.05 0.04 0.03 0.02 0.02 0.02 0.02 0.01 0.00 0.01 0.01 0.02 0.04 0.09 0.10 0.10 0.12 0.13 0.13
0.17 0.20 0.27 0.32 0.34 0.32 0.28 0.25 0.28 0.31 0.32 0.36 0.44 0.48 0.47 0.46 0.48 0.41 0.33 0.24 0.18 0.15 0.14 0.11 0.07 0.05 0.04 0.03 0.03 0.02 0.02 0.01 0.00 0.00 0.01 0.02 0.04 0.09 0.10 0.10 0.12 0.16 0.18
0.28 0.34 0.36 0.39 0.39 0.40 0.38 0.33 0.30 0.32 0.35 0.39 0.45 0.46 0.49 0.47 0.48 0.48 0.38 0.23 0.15 0.14 0.15 0.12 0.09 0.08 0.06 0.05 0.04 0.04 0.03 0.01 0.00 0.00 0.01 0.02 0.05 0.09 0.11 0.12 0.13 0.15 0.18
0.43 0.51 0.51 0.51 0.45 0.42 0.41 0.43 0.38 0.37 0.38 0.43 0.50 0.48 0.50 0.49 0.48 0.49 0.42 0.28 0.18 0.16 0.17 0.15 0.13 0.11 0.09 0.07 0.06 0.05 0.03 0.01 0.00 0.00 0.01 0.02 0.05 0.08 0.10 0.11 0.11 0.12 0.13
0.71 0.74 0.67 0.60 0.51 0.46 0.42 0.41 0.42 0.42 0.43 0.47 0.52 0.50 0.50 0.48 0.48 0.47 0.41 0.30 0.24 0.21 0.21 0.20 0.17 0.13 0.11 0.10 0.07 0.04 0.03 0.01 0.00 0.00 0.01 0.01 0.04 0.08 0.10 0.11 0.13 0.13 0.13
0.94 0.97 0.90 0.77 0.67 0.57 0.50 0.41 0.39 0.41 0.41 0.44 0.44 0.38 0.38 0.41 0.44 0.41 0.32 0.27 0.24 0.21 0.21 0.20 0.18 0.16 0.13 0.10 0.07 0.04 0.03 0.01 0.01 0.01 0.01 0.01 0.04 0.11 0.14 0.15 0.15 0.13 0.12
1.12 1.10 1.09 0.97 0.81 0.68 0.56 0.45 0.39 0.38 0.38 0.38 0.36 0.30 0.30 0.34 0.38 0.32 0.23 0.20 0.24 0.25 0.22 0.20 0.19 0.17 0.13 0.08 0.06 0.04 0.02 0.01 0.01 0.01 0.01 0.02 0.08 0.14 0.14 0.11 0.09 0.08 0.09
1.15 1.11 1.13 1.04 0.94 0.84 0.67 0.51 0.46 0.42 0.39 0.35 0.30 0.30 0.28 0.29 0.33 0.28 0.26 0.22 0.22 0.24 0.23 0.23 0.23 0.21 0.16 0.09 0.06 0.05 0.04 0.03 0.02 0.01 0.02 0.05 0.08 0.10 0.09 0.07 0.07 0.08 0.07
1.23 1.27 1.22 1.15 1.03 0.97 0.88 0.64 0.49 0.44 0.43 0.40 0.32 0.31 0.31 0.32 0.35 0.35 0.32 0.28 0.25 0.22 0.20 0.20 0.21 0.18 0.14 0.11 0.09 0.07 0.06 0.05 0.03 0.02 0.02 0.03 0.04 0.07 0.07 0.07 0.06 0.06 0.05
1.29 1.27 1.27 1.27 1.13 0.97 0.89 0.76 0.60 0.48 0.44 0.43 0.37 0.32 0.35 0.34 0.32 0.31 0.30 0.28 0.29 0.25 0.22 0.20 0.18 0.15 0.14 0.12 0.10 0.09 0.08 0.06 0.04 0.03 0.02 0.02 0.02 0.04 0.07 0.08 0.07 0.06 0.06
1.25 1.30 1.27 1.28 1.23 1.07 0.96 0.83 0.70 0.58 0.50 0.49 0.45 0.39 0.35 0.35 0.32 0.30 0.30 0.33 0.35 0.34 0.30 0.25 0.23 0.20 0.18 0.16 0.13 0.10 0.10 0.08 0.05 0.04 0.03 0.03 0.03 0.03 0.05 0.08 0.10 0.11 0.12
1.08 1.24 1.28 1.28 1.30 1.24 1.04 0.90 0.77 0.64 0.54 0.56 0.54 0.46 0.45 0.41 0.40 0.37 0.33 0.32 0.34 0.35 0.36 0.33 0.30 0.29 0.26 0.23 0.18 0.15 0.12 0.12 0.10 0.06 0.04 0.03 0.03 0.03 0.03 0.06 0.11 0.16 0.18
1.01 1.20 1.21 1.27 1.35 1.34 1.22 1.07 0.85 0.74 0.60 0.54 0.56 0.55 0.54 0.51 0.48 0.45 0.41 0.36 0.33 0.35 0.38 0.40 0.40 0.40 0.35 0.30 0.25 0.23 0.21 0.18 0.17 0.15 0.10 0.07 0.05 0.04 0.03 0.04 0.09 0.16 0.21
1.13 1.21 1.26 1.25 1.37 1.37 1.35 1.31 1.12 0.89 0.72 0.60 0.60 0.64 0.59 0.58 0.57 0.55 0.49 0.38 0.33 0.39 0.42 0.41 0.39 0.39 0.34 0.29 0.24 0.24 0.24 0.23 0.21 0.21 0.19 0.16 0.12 0.09 0.06 0.05 0.06 0.12 0.19
1.20 1.24 1.38 1.34 1.40 1.48 1.48 1.49 1.40 1.22 0.98 0.80 0.69 0.65 0.64 0.63 0.63 0.65 0.59 0.53 0.49 0.44 0.43 0.44 0.39 0.37 0.36 0.34 0.31 0.27 0.24 0.22 0.20 0.20 0.19 0.16 0.13 0.10 0.09 0.08 0.08 0.09 0.13
1.23 1.32 1.46 1.49 1.50 1.66 1.75 1.76 1.70 1.47 1.21 1.07 0.90 0.78 0.74 0.75 0.73 0.72 0.72 0.71 0.70 0.63 0.51 0.47 0.45 0.43 0.40 0.43 0.45 0.41 0.35 0.29 0.26 0.23 0.21 0.18 0.14 0.12 0.11 0.10 0.10 0.09 0.09
1.22 1.33 1.42 1.52 1.58 1.72 1.75 1.72 1.71 1.54 1.36 1.21 1.10 1.01 0.96 0.93 0.95 0.90 0.83 0.88 0.90 0.84 0.73 0.67 0.64 0.61 0.57 0.57 0.58 0.50 0.43 0.40 0.37 0.31 0.27 0.25 0.21 0.18 0.15 0.14 0.12 0.11 0.09
1.03 1.23 1.37 1.46 1.60 1.62 1.63 1.73 1.86 1.93 1.76 1.50 1.35 1.22 1.12 1.08 1.08 1.05 1.02 1.00 1.00 1.01 0.99 0.94 0.91 0.86 0.80 0.80 0.79 0.75 0.59 0.45 0.35 0.31 0.31 0.30 0.28 0.26 0.23 0.21 0.18 0.15 0.13
0.87 1.09 1.32 1.45 1.60 1.64 1.68 1.90 2.04 2.16 2.00 1.72 1.37 1.21 1.19 1.22 1.24 1.15 1.13 1.16 1.12 1.08 1.05 1.04 1.04 1.02 0.96 0.92 0.91 0.96 0.81 0.56 0.38 0.29 0.26 0.27 0.29 0.29 0.29 0.30 0.30 0.27 0.21
0.75 0.91 1.08 1.26 1.45 1.63 1.68 1.73 1.78 1.85 1.82 1.61 1.49 1.41 1.42 1.43 1.42 1.36 1.29 1.28 1.26 1.21 1.11 1.10 1.09 1.05 1.02 0.97 0.94 0.86 0.79 0.64 0.58 0.43 0.29 0.27 0.29 0.28 0.30 0.32 0.35 0.36 0.35
0.65 0.85 0.98 1.09 1.29 1.51 1.62 1.67 1.78 1.75 1.75 1.83 1.79 1.69 1.60 1.55 1.51 1.46 1.41 1.39 1.32 1.26 1.22 1.22 1.20 1.17 1.11 1.05 1.00 0.94 0.92 0.79 0.65 0.61 0.45 0.32 0.32 0.33 0.34 0.35 0.37 0.38 0.40
0.56 0.73 0.93 0.99 1.11 1.27 1.48 1.66 1.71 1.65 1.68 1.72 1.72 1.68 1.67 1.66 1.62 1.52 1.44 1.39 1.33 1.30 1.28 1.28 1.31 1.27 1.23 1.18 1.13 1.07 1.06 1.00 0.85 0.79 0.69 0.46 0.39 0.35 0.34 0.35 0.35 0.37 0.38